Location: Karlsruhe
(49.0131°N, 8.3874°E)
Time: 07:24:08
(UTC+02:00)

ISS - Visible Passes

Search period start: 29 March 2017 00:00
Search period end: 08 April 2017 00:00
Orbit: 399 x 409 km, 51.6° (Epoch: 29 March)

Date Brightness Start Highest point End Pass type
(mag) Time Alt. Az. Time Alt. Az. Time Alt. Az.
29 Mar -3.9 21:41:50 10° SW 21:45:04 64° SSE 21:45:05 64° SSE visible
30 Mar -3.3 20:49:40 10° SW 20:52:45 41° SSE 20:55:20 14° E visible
30 Mar -2.3 22:25:55 10° W 22:28:00 35° W 22:28:00 35° W visible
31 Mar -3.8 21:33:28 10° WSW 21:36:44 80° NNW 21:38:02 33° ENE visible
31 Mar -0.7 23:10:12 10° WNW 23:10:43 14° WNW 23:10:43 14° WNW visible
01 Apr -3.9 20:41:05 10° WSW 20:44:19 74° SSE 20:47:36 10° ENE visible
01 Apr -3.0 22:17:43 10° W 22:20:37 49° NNW 22:20:37 49° NNW visible
02 Apr -3.4 21:25:12 10° W 21:28:26 58° N 21:30:24 21° ENE visible
02 Apr -1.2 23:01:55 10° WNW 23:03:04 20° WNW 23:03:04 20° WNW visible
03 Apr -3.6 20:32:41 10° WSW 20:35:56 73° NNW 20:39:13 10° ENE visible
03 Apr -3.3 22:09:26 10° WNW 22:12:39 52° N 22:12:46 51° NNE visible
04 Apr -3.2 21:16:55 10° W 21:20:07 51° N 21:22:25 17° ENE visible
04 Apr -1.6 22:53:30 10° WNW 22:55:04 26° WNW 22:55:04 26° WNW visible
05 Apr -3.6 22:01:02 10° WNW 22:04:17 62° NNE 22:04:40 56° NE visible
06 Apr -3.3 21:08:32 10° WNW 21:11:45 53° N 21:14:15 15° E visible
06 Apr -2.1 22:45:03 10° WNW 22:46:54 30° W 22:46:54 30° W visible
07 Apr -3.9 21:52:33 10° WNW 21:55:50 88° N 21:56:28 55° ESE visible
